Time,TemperatureF,DewpointF,PressureIn,WindDirection,WindDirectionDegrees,WindSpeedMPH,WindSpeedGustMPH,Humidity,HourlyPrecipIn,Conditions,Clouds,dailyrainin,SoftwareType,DateUTC
2013-09-09 00:08:00,67.8,65.4,29.83,SSE,164,0.0,6.0,92,0.00,,,-99.99,Weather View 32 v70,2013-09-09 05:08:00,
2013-09-09 00:13:00,67.8,65.7,29.83,SE,126,2.0,6.0,93,0.00,,,-99.99,Weather View 32 v70,2013-09-09 05:13:00,
2013-09-09 00:18:00,67.8,65.7,29.80,SE,128,3.0,6.0,93,0.00,,,-99.99,Weather View 32 v70,2013-09-09 05:18:00,
2013-09-09 00:23:00,67.8,65.7,29.80,ESE,103,0.0,5.0,93,0.00,,,-99.99,Weather View 32 v70,2013-09-09 05:23:00,
2013-09-09 00:28:00,67.8,65.7,29.80,East,97,0.0,5.0,93,0.00,,,-99.99,Weather View 32 v70,2013-09-09 05:28:00,
2013-09-09 00:34:00,67.8,65.7,29.80,SSE,155,0.0,5.0,93,0.00,,,-99.99,Weather View 32 v70,2013-09-09 05:34:00,
2013-09-09 00:43:00,68.0,65.9,29.80,ESE,123,3.0,5.0,93,0.00,,,-99.99,Weather View 32 v70,2013-09-09 05:43:00,
2013-09-09 00:48:00,68.0,65.9,29.80,South,170,2.0,5.0,93,0.00,,,-99.99,Weather View 32 v70,2013-09-09 05:48:00,
2013-09-09 00:58:00,68.0,66.2,29.80,SSW,213,4.0,5.0,94,0.00,,,-99.99,Weather View 32 v70,2013-09-09 05:58:00,
2013-09-09 01:08:00,68.0,66.2,29.80,SSE,165,0.0,6.0,94,0.00,,,-99.99,Weather View 32 v70,2013-09-09 06:08:00,
2013-09-09 01:13:00,68.0,66.2,29.80,South,185,3.0,6.0,94,0.00,,,-99.99,Weather View 32 v70,2013-09-09 06:13:00,
2013-09-09 01:23:00,68.0,66.2,29.80,SE,131,0.0,6.0,94,0.00,,,-99.99,Weather View 32 v70,2013-09-09 06:23:00,
2013-09-09 01:28:00,68.2,66.7,29.80,SE,131,0.0,6.0,95,0.00,,,-99.99,Weather View 32 v70,2013-09-09 06:28:00,
2013-09-09 01:33:00,68.2,66.7,29.80,SE,131,0.0,6.0,95,0.00,,,-99.99,Weather View 32 v70,2013-09-09 06:33:00,
2013-09-09 01:43:00,68.2,66.7,29.80,ESE,114,0.0,6.0,95,0.00,,,-99.99,Weather View 32 v70,2013-09-09 06:43:00,
2013-09-09 01:48:00,68.2,66.7,29.77,ESE,115,0.0,6.0,95,0.00,,,-99.99,Weather View 32 v70,2013-09-09 06:48:00,
2013-09-09 01:58:00,68.4,66.9,29.77,ESE,117,0.0,6.0,95,0.00,,,-99.99,Weather View 32 v70,2013-09-09 06:58:00,
2013-09-09 02:08:00,68.4,66.9,29.77,ESE,115,0.0,4.0,95,0.00,,,-99.99,Weather View 32 v70,2013-09-09 07:08:00,
2013-09-09 02:18:00,68.4,66.9,29.77,ESE,115,0.0,3.0,95,0.00,,,-99.99,Weather View 32 v70,2013-09-09 07:18:00,
2013-09-09 02:23:00,68.5,67.0,29.77,ESE,115,0.0,3.0,95,0.00,,,-99.99,Weather View 32 v70,2013-09-09 07:23:00,
2013-09-09 02:33:00,68.5,67.0,29.74,ESE,115,0.0,3.0,95,0.00,,,-99.99,Weather View 32 v70,2013-09-09 07:33:00,
2013-09-09 02:38:00,68.5,67.3,29.74,ESE,115,0.0,3.0,96,0.00,,,-99.99,Weather View 32 v70,2013-09-09 07:38:00,
2013-09-09 02:48:00,68.5,67.3,29.71,ESE,120,0.0,4.0,96,0.00,,,-99.99,Weather View 32 v70,2013-09-09 07:48:00,
2013-09-09 02:53:00,68.7,67.5,29.71,ESE,122,0.0,4.0,96,0.00,,,-99.99,Weather View 32 v70,2013-09-09 07:53:00,
2013-09-09 02:59:00,68.7,67.5,29.71,ESE,122,0.0,4.0,96,0.00,,,-99.99,Weather View 32 v70,2013-09-09 07:59:00,
2013-09-09 03:04:00,68.7,67.5,29.71,ESE,122,0.0,4.0,96,0.00,,,-99.99,Weather View 32 v70,2013-09-09 08:04:00,
2013-09-09 03:14:00,68.5,67.3,29.71,SE,127,0.0,4.0,96,0.00,,,-99.99,Weather View 32 v70,2013-09-09 08:14:00,
2013-09-09 03:19:00,68.5,67.3,29.71,ESE,113,0.0,4.0,96,0.00,,,-99.99,Weather View 32 v70,2013-09-09 08:19:00,
2013-09-09 03:24:00,68.5,67.3,29.71,ESE,118,0.0,4.0,96,0.00,,,-99.99,Weather View 32 v70,2013-09-09 08:24:00,
2013-09-09 03:29:00,68.5,67.3,29.74,ESE,118,0.0,4.0,96,0.00,,,-99.99,Weather View 32 v70,2013-09-09 08:29:00,
2013-09-09 03:34:00,68.5,67.3,29.74,SSE,166,0.0,4.0,96,0.00,,,-99.99,Weather View 32 v70,2013-09-09 08:34:00,
2013-09-09 03:44:00,68.7,67.5,29.74,ESE,105,3.0,4.0,96,0.00,,,-99.99,Weather View 32 v70,2013-09-09 08:44:00,
2013-09-09 03:49:00,68.7,67.5,29.74,East,85,3.0,5.0,96,0.00,,,-99.99,Weather View 32 v70,2013-09-09 08:49:00,
2013-09-09 03:59:00,68.9,67.7,29.68,WSW,245,4.0,5.0,96,0.00,,,-99.99,Weather View 32 v70,2013-09-09 08:59:00,
2013-09-09 04:09:00,68.9,68.0,29.68,NW,323,3.0,6.0,97,0.04,,,-99.99,Weather View 32 v70,2013-09-09 09:09:00,
2013-09-09 04:19:00,69.1,68.2,29.65,SSW,204,2.0,6.0,97,0.04,,,-99.99,Weather View 32 v70,2013-09-09 09:19:00,
2013-09-09 04:24:00,69.1,68.2,29.65,ESE,115,3.0,6.0,97,0.04,,,-99.99,Weather View 32 v70,2013-09-09 09:24:00,
2013-09-09 04:34:00,69.4,68.5,29.80,SSW,199,12.0,23.0,97,0.28,,,-99.99,Weather View 32 v70,2013-09-09 09:34:00,
2013-09-09 04:39:00,68.7,67.8,29.80,SSW,198,8.0,23.0,97,0.43,,,-99.99,Weather View 32 v70,2013-09-09 09:39:00,
2013-09-09 04:44:00,68.7,67.8,29.80,South,188,8.0,23.0,97,0.43,,,-99.99,Weather View 32 v70,2013-09-09 09:44:00,
2013-09-09 04:54:00,68.4,67.5,29.80,South,181,3.0,23.0,97,0.47,,,-99.99,Weather View 32 v70,2013-09-09 09:54:00,
2013-09-09 04:59:00,68.2,67.3,29.77,SE,143,4.0,23.0,97,0.47,,,-99.99,Weather View 32 v70,2013-09-09 09:59:00,
2013-09-09 05:09:00,68.0,67.1,29.77,SSE,148,2.0,23.0,97,0.43,,,-99.99,Weather View 32 v70,2013-09-09 10:09:00,
2013-09-09 05:14:00,68.0,66.8,29.74,SSE,165,0.0,23.0,96,0.47,,,-99.99,Weather View 32 v70,2013-09-09 10:14:00,
2013-09-09 05:19:00,68.0,67.1,29.74,SE,124,4.0,23.0,97,0.47,,,-99.99,Weather View 32 v70,2013-09-09 10:19:00,
2013-09-09 05:24:00,68.2,67.3,29.74,SE,137,4.0,23.0,97,0.47,,,-99.99,Weather View 32 v70,2013-09-09 10:24:00,
2013-09-09 05:34:00,68.5,67.7,29.71,SSE,163,0.0,23.0,97,0.24,,,-99.99,Weather View 32 v70,2013-09-09 10:34:00,
2013-09-09 05:44:00,68.7,67.8,29.71,SE,129,3.0,8.0,97,0.08,,,-99.99,Weather View 32 v70,2013-09-09 10:44:00,
2013-09-09 05:49:00,68.7,67.8,29.71,SE,126,0.0,6.0,97,0.08,,,-99.99,Weather View 32 v70,2013-09-09 10:49:00,
2013-09-09 05:59:00,68.7,67.8,29.68,SE,126,0.0,6.0,97,0.08,,,-99.99,Weather View 32 v70,2013-09-09 10:59:00,
2013-09-09 06:09:00,68.9,68.0,29.68,ESE,121,0.0,6.0,97,0.12,,,-99.99,Weather View 32 v70,2013-09-09 11:09:00,
2013-09-09 06:19:00,68.9,68.0,29.65,South,190,0.0,6.0,97,0.08,,,-99.99,Weather View 32 v70,2013-09-09 11:19:00,
2013-09-09 06:24:00,68.9,68.0,29.65,South,190,0.0,6.0,97,0.08,,,-99.99,Weather View 32 v70,2013-09-09 11:24:00,
2013-09-09 06:29:00,68.9,68.0,29.65,SW,217,0.0,6.0,97,0.08,,,-99.99,Weather View 32 v70,2013-09-09 11:29:00,
2013-09-09 06:34:00,68.9,68.0,29.65,SSW,193,3.0,6.0,97,0.12,,,-99.99,Weather View 32 v70,2013-09-09 11:34:00,
2013-09-09 06:44:00,69.1,68.2,29.59,WSW,256,3.0,4.0,97,0.12,,,-99.99,Weather View 32 v70,2013-09-09 11:44:00,
2013-09-09 06:49:00,69.3,68.4,29.59,SW,232,3.0,4.0,97,0.08,,,-99.99,Weather View 32 v70,2013-09-09 11:49:00,
2013-09-09 06:54:00,69.3,68.4,29.59,ENE,75,0.0,4.0,97,0.08,,,-99.99,Weather View 32 v70,2013-09-09 11:54:00,
2013-09-09 06:59:00,69.3,68.4,29.62,East,95,0.0,4.0,97,0.08,,,-99.99,Weather View 32 v70,2013-09-09 11:59:00,
2013-09-09 07:09:00,69.4,68.5,29.62,SE,141,3.0,6.0,97,0.04,,,-99.99,Weather View 32 v70,2013-09-09 12:09:00,
2013-09-09 07:19:00,69.4,68.5,29.62,SSE,148,0.0,6.0,97,0.08,,,-99.99,Weather View 32 v70,2013-09-09 12:19:00,
2013-09-09 07:24:00,69.4,68.5,29.62,South,173,5.0,6.0,97,0.08,,,-99.99,Weather View 32 v70,2013-09-09 12:24:00,
2013-09-09 07:29:00,69.4,68.5,29.62,ESE,123,0.0,6.0,97,0.08,,,-99.99,Weather View 32 v70,2013-09-09 12:29:00,
2013-09-09 07:39:00,69.4,68.5,29.62,ENE,74,3.0,6.0,97,0.04,,,-99.99,Weather View 32 v70,2013-09-09 12:39:00,
2013-09-09 07:49:00,69.4,68.5,29.62,ESE,117,0.0,6.0,97,0.04,,,-99.99,Weather View 32 v70,2013-09-09 12:49:00,
2013-09-09 07:59:00,69.4,68.5,29.62,SSE,166,0.0,6.0,97,0.04,,,-99.99,Weather View 32 v70,2013-09-09 12:59:00,
2013-09-09 08:09:00,69.6,69.0,29.62,SSE,166,0.0,5.0,98,0.04,,,-99.99,Weather View 32 v70,2013-09-09 13:09:00,
2013-09-09 08:19:00,69.6,68.7,29.62,ESE,103,0.0,5.0,97,0.00,,,-99.99,Weather View 32 v70,2013-09-09 13:19:00,
2013-09-09 08:24:00,69.8,68.9,29.62,ESE,106,0.0,5.0,97,0.00,,,-99.99,Weather View 32 v70,2013-09-09 13:24:00,
2013-09-09 08:34:00,70.0,69.1,29.62,ESE,107,0.0,5.0,97,0.00,,,-99.99,Weather View 32 v70,2013-09-09 13:34:00,
2013-09-09 08:40:00,70.2,69.3,29.62,ESE,106,0.0,4.0,97,0.00,,,-99.99,Weather View 32 v70,2013-09-09 13:40:00,
2013-09-09 08:49:00,70.7,69.8,29.62,SE,133,0.0,3.0,97,0.00,,,-99.99,Weather View 32 v70,2013-09-09 13:49:00,
2013-09-09 08:59:00,71.1,70.5,29.65,SSE,155,0.0,6.0,98,0.00,,,-99.99,Weather View 32 v70,2013-09-09 13:59:00,
2013-09-09 09:09:00,71.2,70.6,29.65,ESE,120,2.0,6.0,98,0.00,,,-99.99,Weather View 32 v70,2013-09-09 14:09:00,
2013-09-09 09:14:00,71.4,70.8,29.65,South,172,0.0,6.0,98,0.00,,,-99.99,Weather View 32 v70,2013-09-09 14:14:00,
2013-09-09 09:24:00,71.8,70.9,29.65,SE,139,0.0,6.0,97,0.00,,,-99.99,Weather View 32 v70,2013-09-09 14:24:00,
2013-09-09 09:29:00,71.8,70.9,29.65,SSE,151,0.0,6.0,97,0.00,,,-99.99,Weather View 32 v70,2013-09-09 14:29:00,
2013-09-09 09:39:00,72.0,71.1,29.65,SSE,154,2.0,6.0,97,0.00,,,-99.99,Weather View 32 v70,2013-09-09 14:39:00,
2013-09-09 09:49:00,72.0,71.1,29.65,SSE,168,0.0,6.0,97,0.00,,,-99.99,Weather View 32 v70,2013-09-09 14:49:00,
2013-09-09 09:54:00,72.0,71.1,29.65,SSW,195,0.0,6.0,97,0.00,,,-99.99,Weather View 32 v70,2013-09-09 14:54:00,
2013-09-09 10:04:00,72.0,70.8,29.65,SSE,150,0.0,6.0,96,0.00,,,-99.99,Weather View 32 v70,2013-09-09 15:04:00,
2013-09-09 10:09:00,72.1,70.9,29.65,SSE,147,0.0,6.0,96,0.00,,,-99.99,Weather View 32 v70,2013-09-09 15:09:00,
2013-09-09 10:18:00,72.1,70.9,29.65,SE,142,3.0,4.0,96,0.00,,,-99.99,Weather View 32 v70,2013-09-09 15:18:00,
2013-09-09 10:24:00,72.0,70.4,29.65,SE,145,0.0,5.0,95,0.00,,,-99.99,Weather View 32 v70,2013-09-09 15:24:00,
2013-09-09 10:34:00,71.8,70.0,29.65,SSE,147,0.0,5.0,94,0.00,,,-99.99,Weather View 32 v70,2013-09-09 15:34:00,
2013-09-09 10:39:00,71.8,69.6,29.65,SE,141,0.0,5.0,93,0.00,,,-99.99,Weather View 32 v70,2013-09-09 15:39:00,
2013-09-09 10:49:00,71.8,69.3,29.65,SE,143,0.0,5.0,92,0.00,,,-99.99,Weather View 32 v70,2013-09-09 15:49:00,
2013-09-09 10:59:00,71.6,68.8,29.65,SSE,159,0.0,5.0,91,0.00,,,-99.99,Weather View 32 v70,2013-09-09 15:59:00,
2013-09-09 11:08:00,71.4,68.6,29.65,SSE,155,0.0,5.0,91,0.00,,,-99.99,Weather View 32 v70,2013-09-09 16:08:00,
2013-09-09 11:13:00,71.4,68.6,29.65,SE,144,0.0,5.0,91,0.00,,,-99.99,Weather View 32 v70,2013-09-09 16:13:00,
2013-09-09 11:23:00,71.2,68.5,29.65,SE,141,0.0,5.0,91,0.00,,,-99.99,Weather View 32 v70,2013-09-09 16:23:00,
2013-09-09 11:28:00,71.2,68.5,29.65,SE,141,0.0,4.0,91,0.00,,,-99.99,Weather View 32 v70,2013-09-09 16:28:00,
2013-09-09 11:38:00,71.4,68.6,29.65,SE,141,0.0,4.0,91,0.00,,,-99.99,Weather View 32 v70,2013-09-09 16:38:00,
2013-09-09 11:48:00,71.6,68.8,29.65,SE,141,0.0,4.0,91,0.00,,,-99.99,Weather View 32 v70,2013-09-09 16:48:00,
2013-09-09 12:03:00,72.3,69.5,29.65,SE,141,0.0,2.0,91,0.00,,,-99.99,Weather View 32 v70,2013-09-09 17:03:00,
2013-09-09 12:08:00,72.3,69.5,29.65,ESE,109,0.0,3.0,91,0.00,,,-99.99,Weather View 32 v70,2013-09-09 17:08:00,
2013-09-09 12:18:00,72.7,69.9,29.62,SE,143,0.0,3.0,91,0.00,,,-99.99,Weather View 32 v70,2013-09-09 17:18:00,
2013-09-09 12:28:00,73.0,70.2,29.62,SE,145,0.0,3.0,91,0.00,,,-99.99,Weather View 32 v70,2013-09-09 17:28:00,
2013-09-09 12:33:00,73.2,70.4,29.62,ESE,109,0.0,3.0,91,0.00,,,-99.99,Weather View 32 v70,2013-09-09 17:33:00,
2013-09-09 12:43:00,73.9,71.1,29.62,SSE,147,0.0,6.0,91,0.00,,,-99.99,Weather View 32 v70,2013-09-09 17:43:00,
2013-09-09 12:53:00,74.3,71.2,29.62,SSE,162,0.0,6.0,90,0.00,,,-99.99,Weather View 32 v70,2013-09-09 17:53:00,
2013-09-09 12:58:00,74.5,71.3,29.62,SSE,150,0.0,6.0,90,0.00,,,-99.99,Weather View 32 v70,2013-09-09 17:58:00,
2013-09-09 13:08:00,74.7,71.2,29.62,SE,124,0.0,6.0,89,0.00,,,-99.99,Weather View 32 v70,2013-09-09 18:08:00,
2013-09-09 13:13:00,74.8,71.4,29.62,SE,127,0.0,6.0,89,0.00,,,-99.99,Weather View 32 v70,2013-09-09 18:13:00,
2013-09-09 13:23:00,75.2,71.4,29.62,SE,126,0.0,6.0,88,0.00,,,-99.99,Weather View 32 v70,2013-09-09 18:23:00,
2013-09-09 13:33:00,74.8,70.7,29.62,SE,136,0.0,6.0,87,0.00,,,-99.99,Weather View 32 v70,2013-09-09 18:33:00,
2013-09-09 13:43:00,74.7,70.5,29.62,SE,135,0.0,4.0,87,0.00,,,-99.99,Weather View 32 v70,2013-09-09 18:43:00,
2013-09-09 13:53:00,74.7,70.5,29.62,SE,135,0.0,2.0,87,0.00,,,-99.99,Weather View 32 v70,2013-09-09 18:53:00,
2013-09-09 13:58:00,74.5,70.3,29.62,SE,138,0.0,0.0,87,0.00,,,-99.99,Weather View 32 v70,2013-09-09 18:58:00,
2013-09-09 14:08:00,74.5,70.3,29.62,SE,138,0.0,0.0,87,0.00,,,-99.99,Weather View 32 v70,2013-09-09 19:08:00,
2013-09-09 14:13:00,74.5,70.3,29.62,SE,138,0.0,0.0,87,0.00,,,-99.99,Weather View 32 v70,2013-09-09 19:13:00,
2013-09-09 14:18:00,74.5,70.3,29.62,SE,138,0.0,0.0,87,0.00,,,-99.99,Weather View 32 v70,2013-09-09 19:18:00,
2013-09-09 14:28:00,74.7,70.5,29.62,SE,138,0.0,0.0,87,0.00,,,-99.99,Weather View 32 v70,2013-09-09 19:28:00,
2013-09-09 14:38:00,75.0,70.9,29.62,SE,138,0.0,0.0,87,0.00,,,-99.99,Weather View 32 v70,2013-09-09 19:38:00,
2013-09-09 14:45:00,75.2,71.0,29.62,SE,138,0.0,0.0,87,0.00,,,-99.99,Weather View 32 v70,2013-09-09 19:45:00,
2013-09-09 14:53:00,75.4,71.2,29.62,SE,139,0.0,0.0,87,0.00,,,-99.99,Weather View 32 v70,2013-09-09 19:53:00,
2013-09-09 14:59:00,75.4,71.2,29.62,SE,139,0.0,0.0,87,0.00,,,-99.99,Weather View 32 v70,2013-09-09 19:59:00,
2013-09-09 15:09:00,75.4,70.9,29.62,SE,139,0.0,0.0,86,0.00,,,-99.99,Weather View 32 v70,2013-09-09 20:09:00,
2013-09-09 15:14:00,75.4,70.9,29.62,SE,139,0.0,0.0,86,0.00,,,-99.99,Weather View 32 v70,2013-09-09 20:14:00,
2013-09-09 15:19:00,75.6,71.1,29.62,SE,139,0.0,0.0,86,0.00,,,-99.99,Weather View 32 v70,2013-09-09 20:19:00,
2013-09-09 15:29:00,75.6,70.7,29.62,SE,139,0.0,0.0,85,0.00,,,-99.99,Weather View 32 v70,2013-09-09 20:29:00,
2013-09-09 15:39:00,75.6,70.7,29.62,West,280,0.0,0.0,85,0.00,,,-99.99,Weather View 32 v70,2013-09-09 20:39:00,
2013-09-09 15:46:00,75.2,70.0,29.62,NW,306,0.0,4.0,84,0.00,,,-99.99,Weather View 32 v70,2013-09-09 20:46:00,
2013-09-09 15:54:00,74.5,69.0,29.62,NW,305,0.0,4.0,83,0.00,,,-99.99,Weather View 32 v70,2013-09-09 20:54:00,
2013-09-09 15:59:00,74.3,68.8,29.62,NW,305,0.0,4.0,83,0.00,,,-99.99,Weather View 32 v70,2013-09-09 20:59:00,
2013-09-09 16:09:00,73.9,68.8,29.62,NW,307,0.0,4.0,84,0.00,,,-99.99,Weather View 32 v70,2013-09-09 21:09:00,
2013-09-09 16:18:00,73.9,68.8,29.62,NW,315,0.0,4.0,84,0.00,,,-99.99,Weather View 32 v70,2013-09-09 21:18:00,
2013-09-09 16:23:00,74.1,69.3,29.62,NW,326,0.0,4.0,85,0.00,,,-99.99,Weather View 32 v70,2013-09-09 21:23:00,
2013-09-09 16:28:00,74.3,69.5,29.62,NW,324,0.0,4.0,85,0.00,,,-99.99,Weather View 32 v70,2013-09-09 21:28:00,
2013-09-09 16:38:00,73.9,69.1,29.65,NW,314,0.0,4.0,85,0.00,,,-99.99,Weather View 32 v70,2013-09-09 21:38:00,
2013-09-09 16:44:00,73.8,69.3,29.65,WNW,301,0.0,5.0,86,0.00,,,-99.99,Weather View 32 v70,2013-09-09 21:44:00,
2013-09-09 16:53:00,73.2,68.8,29.65,NW,312,0.0,5.0,86,0.00,,,-99.99,Weather View 32 v70,2013-09-09 21:53:00,
2013-09-09 16:59:00,73.0,68.6,29.65,NW,311,0.0,5.0,86,0.00,,,-99.99,Weather View 32 v70,2013-09-09 21:59:00,
2013-09-09 17:04:00,72.9,68.7,29.65,NW,310,0.0,5.0,87,0.00,,,-99.99,Weather View 32 v70,2013-09-09 22:04:00,
2013-09-09 17:13:00,72.5,68.4,29.65,NW,307,0.0,5.0,87,0.00,,,-99.99,Weather View 32 v70,2013-09-09 22:13:00,
2013-09-09 17:18:00,72.5,68.4,29.65,NW,307,0.0,5.0,87,0.00,,,-99.99,Weather View 32 v70,2013-09-09 22:18:00,
2013-09-09 17:23:00,72.5,68.7,29.65,NW,307,0.0,5.0,88,0.00,,,-99.99,Weather View 32 v70,2013-09-09 22:23:00,
2013-09-09 17:33:00,73.6,69.8,29.65,NW,306,0.0,5.0,88,0.00,,,-99.99,Weather View 32 v70,2013-09-09 22:33:00,
2013-09-09 17:48:00,73.9,70.5,29.65,NW,305,0.0,4.0,89,0.00,,,-99.99,Weather View 32 v70,2013-09-09 22:48:00,
2013-09-09 17:53:00,73.2,69.8,29.68,WNW,299,0.0,8.0,89,0.00,,,-99.99,Weather View 32 v70,2013-09-09 22:53:00,
2013-09-09 17:59:00,72.0,67.9,29.68,NW,313,5.0,9.0,87,0.00,,,-99.99,Weather View 32 v70,2013-09-09 22:59:00,
2013-09-09 18:08:00,70.9,67.1,29.68,WNW,291,0.0,9.0,88,0.00,,,-99.99,Weather View 32 v70,2013-09-09 23:08:00,
2013-09-09 18:18:00,70.5,67.1,29.68,NW,317,3.0,9.0,89,0.00,,,-99.99,Weather View 32 v70,2013-09-09 23:18:00,
2013-09-09 18:28:00,70.5,67.4,29.68,NW,320,3.0,9.0,90,0.00,,,-99.99,Weather View 32 v70,2013-09-09 23:28:00,
2013-09-09 18:38:00,70.7,67.9,29.68,WNW,301,0.0,9.0,91,0.00,,,-99.99,Weather View 32 v70,2013-09-09 23:38:00,
2013-09-09 18:48:00,70.7,67.9,29.68,NW,313,0.0,9.0,91,0.00,,,-99.99,Weather View 32 v70,2013-09-09 23:48:00,
2013-09-09 18:58:00,70.5,67.8,29.68,NNW,332,4.0,9.0,91,0.00,,,-99.99,Weather View 32 v70,2013-09-09 23:58:00,
2013-09-09 19:08:00,70.3,67.6,29.71,WNW,292,4.0,7.0,91,0.00,,,-99.99,Weather View 32 v70,2013-09-10 00:08:00,
2013-09-09 19:18:00,70.2,67.4,29.71,NW,315,3.0,7.0,91,0.00,,,-99.99,Weather View 32 v70,2013-09-10 00:18:00,
2013-09-09 19:23:00,70.2,67.4,29.71,NNW,328,0.0,7.0,91,0.00,,,-99.99,Weather View 32 v70,2013-09-10 00:23:00,
2013-09-09 19:33:00,70.2,67.4,29.71,WNW,294,4.0,7.0,91,0.00,,,-99.99,Weather View 32 v70,2013-09-10 00:33:00,
2013-09-09 19:38:00,70.2,67.4,29.71,NW,322,5.0,8.0,91,0.00,,,-99.99,Weather View 32 v70,2013-09-10 00:38:00,
2013-09-09 19:48:00,70.0,67.2,29.71,NNW,332,5.0,8.0,91,0.00,,,-99.99,Weather View 32 v70,2013-09-10 00:48:00,
2013-09-09 19:54:00,70.0,67.2,29.71,NW,313,0.0,8.0,91,0.00,,,-99.99,Weather View 32 v70,2013-09-10 00:54:00,
2013-09-09 19:59:00,69.8,66.7,29.74,WNW,296,3.0,8.0,90,0.00,,,-99.99,Weather View 32 v70,2013-09-10 00:59:00,
2013-09-09 20:09:00,69.8,66.7,29.74,NW,318,0.0,8.0,90,0.00,,,-99.99,Weather View 32 v70,2013-09-10 01:09:00,
2013-09-09 20:19:00,69.8,66.4,29.74,NW,305,0.0,8.0,89,0.00,,,-99.99,Weather View 32 v70,2013-09-10 01:19:00,
2013-09-09 20:29:00,69.6,66.5,29.74,NW,304,0.0,8.0,90,0.00,,,-99.99,Weather View 32 v70,2013-09-10 01:29:00,
2013-09-09 20:34:00,69.6,66.2,29.74,WNW,298,0.0,8.0,89,0.00,,,-99.99,Weather View 32 v70,2013-09-10 01:34:00,
2013-09-09 20:44:00,69.4,66.0,29.74,WNW,295,0.0,6.0,89,0.00,,,-99.99,Weather View 32 v70,2013-09-10 01:44:00,
2013-09-09 20:50:00,69.4,66.0,29.74,WNW,290,0.0,6.0,89,0.00,,,-99.99,Weather View 32 v70,2013-09-10 01:50:00,
2013-09-09 20:59:00,69.4,66.0,29.77,WNW,287,0.0,6.0,89,0.00,,,-99.99,Weather View 32 v70,2013-09-10 01:59:00,
2013-09-09 21:09:00,69.4,66.0,29.77,West,277,0.0,4.0,89,0.00,,,-99.99,Weather View 32 v70,2013-09-10 02:09:00,
2013-09-09 21:19:00,69.3,66.2,29.77,West,274,0.0,4.0,90,0.00,,,-99.99,Weather View 32 v70,2013-09-10 02:19:00,
2013-09-09 21:28:00,69.1,65.7,29.77,West,273,0.0,4.0,89,0.00,,,-99.99,Weather View 32 v70,2013-09-10 02:28:00,
2013-09-09 21:34:00,68.9,65.5,29.77,West,274,0.0,4.0,89,0.00,,,-99.99,Weather View 32 v70,2013-09-10 02:34:00,
2013-09-09 21:44:00,68.5,65.2,29.77,West,274,0.0,4.0,89,0.00,,,-99.99,Weather View 32 v70,2013-09-10 02:44:00,
2013-09-09 21:51:00,68.5,65.2,29.77,West,274,0.0,4.0,89,0.00,,,-99.99,Weather View 32 v70,2013-09-10 02:51:00,
2013-09-09 21:59:00,68.2,64.8,29.77,West,274,0.0,4.0,89,0.00,,,-99.99,Weather View 32 v70,2013-09-10 02:59:00,
2013-09-09 22:09:00,68.0,64.6,29.77,West,274,0.0,3.0,89,0.00,,,-99.99,Weather View 32 v70,2013-09-10 03:09:00,
2013-09-09 22:18:00,67.8,64.8,29.77,West,276,0.0,2.0,90,0.00,,,-99.99,Weather View 32 v70,2013-09-10 03:18:00,
2013-09-09 22:24:00,67.6,64.6,29.77,West,276,0.0,2.0,90,0.00,,,-99.99,Weather View 32 v70,2013-09-10 03:24:00,
2013-09-09 22:33:00,67.5,64.4,29.77,West,273,0.0,2.0,90,0.00,,,-99.99,Weather View 32 v70,2013-09-10 03:33:00,
2013-09-09 22:38:00,67.3,64.2,29.77,West,273,0.0,2.0,90,0.00,,,-99.99,Weather View 32 v70,2013-09-10 03:38:00,
2013-09-09 22:43:00,67.3,64.2,29.77,West,273,0.0,2.0,90,0.00,,,-99.99,Weather View 32 v70,2013-09-10 03:43:00,
2013-09-09 22:48:00,67.1,64.1,29.77,West,273,0.0,2.0,90,0.00,,,-99.99,Weather View 32 v70,2013-09-10 03:48:00,
2013-09-09 22:53:00,66.9,63.9,29.77,West,273,0.0,2.0,90,0.00,,,-99.99,Weather View 32 v70,2013-09-10 03:53:00,
2013-09-09 22:58:00,66.9,63.9,29.77,West,273,0.0,2.0,90,0.00,,,-99.99,Weather View 32 v70,2013-09-10 03:58:00,
2013-09-09 23:03:00,66.7,63.7,29.77,West,273,0.0,2.0,90,0.00,,,-99.99,Weather View 32 v70,2013-09-10 04:03:00,
2013-09-09 23:08:00,66.6,63.5,29.77,West,273,0.0,2.0,90,0.00,,,-99.99,Weather View 32 v70,2013-09-10 04:08:00,
2013-09-09 23:13:00,66.6,63.5,29.77,West,273,0.0,2.0,90,0.00,,,-99.99,Weather View 32 v70,2013-09-10 04:13:00,
2013-09-09 23:18:00,66.4,63.3,29.77,West,273,0.0,2.0,90,0.00,,,-99.99,Weather View 32 v70,2013-09-10 04:18:00,
2013-09-09 23:23:00,66.4,63.3,29.77,West,273,0.0,2.0,90,0.00,,,-99.99,Weather View 32 v70,2013-09-10 04:23:00,
2013-09-09 23:28:00,66.4,63.7,29.77,West,273,0.0,2.0,91,0.00,,,-99.99,Weather View 32 v70,2013-09-10 04:28:00,
2013-09-09 23:33:00,66.2,63.5,29.77,West,273,0.0,2.0,91,0.00,,,-99.99,Weather View 32 v70,2013-09-10 04:33:00,
2013-09-09 23:39:00,66.2,63.5,29.77,West,273,0.0,0.0,91,0.00,,,-99.99,Weather View 32 v70,2013-09-10 04:39:00,
2013-09-09 23:43:00,66.0,63.3,29.80,West,273,0.0,0.0,91,0.00,,,-99.99,Weather View 32 v70,2013-09-10 04:43:00,
2013-09-09 23:49:00,66.0,63.3,29.80,West,273,0.0,0.0,91,0.00,,,-99.99,Weather View 32 v70,2013-09-10 04:49:00,
2013-09-09 23:58:00,65.8,63.1,29.77,West,273,0.0,0.0,91,0.00,,,-99.99,Weather View 32 v70,2013-09-10 04:58:00,